Total_Precipitation_Accumulation
0.58 0.41 0.41 0.50 0.47 0.50 0.69 0.77 0.74 0.46 0.36 0.38 0.38 0.38 0.38 0.40 0.41 0.42 0.42 0.48 0.52 0.55 0.58 0.65 0.68 0.69 0.75 0.81 0.82 0.91 1.01 0.98 0.95 1.01 1.02 1.01 1.07 1.11 1.18 1.27 1.29 1.27 1.24 1.26
0.66 0.40 0.37 0.40 0.35 0.36 0.42 0.43 0.42 0.35 0.37 0.36 0.34 0.33 0.32 0.35 0.43 0.43 0.46 0.52 0.55 0.56 0.61 0.70 0.77 0.86 0.94 1.00 1.00 1.03 1.13 1.13 1.02 0.99 0.99 1.01 1.04 1.06 1.09 1.15 1.17 1.17 1.15 1.16
0.97 0.50 0.68 0.73 0.45 0.41 0.41 0.42 0.42 0.45 0.42 0.34 0.32 0.31 0.34 0.35 0.40 0.45 0.47 0.51 0.54 0.57 0.63 0.73 0.86 1.01 1.12 1.10 1.05 1.10 1.15 1.21 1.17 1.04 0.98 0.99 0.99 0.99 0.99 1.01 1.06 1.06 1.06 1.10
1.37 0.98 1.24 0.67 0.34 0.35 0.36 0.40 0.41 0.42 0.39 0.36 0.36 0.33 0.31 0.32 0.36 0.41 0.46 0.53 0.58 0.65 0.66 0.72 0.85 1.00 1.09 1.11 1.09 1.14 1.18 1.17 1.13 1.04 0.94 0.96 0.99 0.95 0.89 0.90 0.96 0.98 1.00 1.03
1.74 1.30 0.74 0.30 0.23 0.34 0.43 0.47 0.43 0.40 0.36 0.34 0.31 0.29 0.29 0.31 0.34 0.39 0.46 0.53 0.60 0.65 0.66 0.69 0.77 0.90 0.96 0.98 0.98 1.02 1.09 1.08 1.05 1.01 0.96 0.98 1.04 0.98 0.89 0.89 0.91 0.91 0.91 0.96
1.94 1.51 0.75 0.33 0.19 0.25 0.41 0.54 0.38 0.36 0.38 0.38 0.39 0.55 0.42 0.35 0.32 0.31 0.34 0.40 0.51 0.60 0.57 0.58 0.67 0.74 0.78 0.84 0.84 0.85 0.91 0.96 1.01 0.96 0.95 0.99 1.05 1.01 0.96 0.94 0.96 0.98 0.96 0.99
1.65 1.43 0.65 0.29 0.17 0.23 0.59 0.69 0.41 0.38 0.40 0.47 0.59 0.66 0.46 0.35 0.32 0.31 0.31 0.34 0.40 0.50 0.58 0.62 0.70 0.74 0.75 0.77 0.80 0.79 0.79 0.82 0.93 0.96 0.95 0.96 1.01 1.04 1.03 1.03 1.05 1.07 1.04 1.02
1.27 1.53 0.81 0.29 0.27 0.51 0.69 0.46 0.38 0.39 0.43 0.52 0.49 0.38 0.33 0.33 0.34 0.31 0.30 0.33 0.39 0.48 0.60 0.68 0.72 0.71 0.69 0.75 0.77 0.73 0.76 0.79 0.84 0.92 0.92 0.94 0.97 0.97 0.96 1.04 1.12 1.14 1.12 1.09
0.95 0.87 0.52 0.39 0.47 0.51 0.48 0.48 0.46 0.55 0.55 0.53 0.50 0.43 0.40 0.38 0.34 0.33 0.33 0.35 0.41 0.49 0.58 0.66 0.67 0.66 0.69 0.75 0.75 0.73 0.75 0.79 0.84 0.90 0.91 0.90 0.90 0.92 0.91 0.93 1.05 1.12 1.13 1.14
0.68 0.50 0.38 0.35 0.32 0.31 0.34 0.44 0.49 0.51 0.53 0.54 0.58 0.51 0.46 0.44 0.42 0.40 0.39 0.40 0.43 0.47 0.56 0.61 0.60 0.63 0.72 0.76 0.76 0.73 0.79 0.84 0.88 0.93 0.96 0.91 0.86 0.87 0.89 0.95 1.13 1.23 1.20 1.17
0.52 0.39 0.33 0.31 0.31 0.32 0.35 0.35 0.35 0.35 0.40 0.52 0.59 0.54 0.46 0.46 0.48 0.49 0.49 0.48 0.49 0.53 0.60 0.59 0.54 0.56 0.68 0.77 0.79 0.79 0.79 0.85 0.91 0.95 0.96 0.94 0.88 0.89 0.94 0.98 1.23 1.51 1.45 1.41
0.48 0.37 0.38 0.37 0.33 0.34 0.37 0.37 0.37 0.38 0.40 0.42 0.47 0.48 0.43 0.45 0.48 0.50 0.52 0.55 0.54 0.53 0.54 0.54 0.51 0.53 0.61 0.71 0.77 0.79 0.80 0.82 0.89 0.97 0.99 0.94 0.89 0.91 0.96 0.99 1.10 1.15 1.18 1.31
0.38 0.32 0.32 0.32 0.29 0.29 0.33 0.36 0.39 0.41 0.41 0.38 0.38 0.40 0.44 0.49 0.49 0.49 0.52 0.53 0.53 0.51 0.52 0.55 0.53 0.54 0.61 0.69 0.75 0.79 0.82 0.85 0.88 0.91 0.94 0.94 0.90 0.88 0.91 0.93 0.95 0.99 1.01 1.08
0.28 0.29 0.31 0.27 0.27 0.25 0.26 0.28 0.31 0.34 0.35 0.32 0.33 0.34 0.39 0.45 0.45 0.43 0.46 0.48 0.49 0.49 0.50 0.53 0.52 0.53 0.59 0.65 0.69 0.75 0.81 0.87 0.89 0.91 0.94 0.92 0.92 0.90 0.88 0.88 0.92 0.95 0.95 0.98
0.22 0.26 0.31 0.26 0.22 0.23 0.23 0.24 0.26 0.28 0.28 0.29 0.29 0.32 0.36 0.40 0.44 0.46 0.46 0.43 0.44 0.45 0.49 0.50 0.50 0.52 0.54 0.58 0.62 0.67 0.73 0.80 0.85 0.89 0.91 0.91 0.91 0.90 0.88 0.86 0.86 0.90 0.92 0.97
0.23 0.23 0.23 0.23 0.25 0.27 0.26 0.25 0.27 0.28 0.27 0.28 0.29 0.31 0.34 0.37 0.39 0.41 0.42 0.41 0.41 0.46 0.50 0.51 0.51 0.53 0.54 0.56 0.58 0.61 0.68 0.79 0.86 0.87 0.87 0.89 0.91 0.92 0.92 0.92 0.92 0.90 0.94 1.02
0.29 0.27 0.27 0.30 0.30 0.32 0.34 0.34 0.32 0.30 0.26 0.24 0.26 0.28 0.29 0.31 0.32 0.34 0.38 0.41 0.42 0.47 0.50 0.53 0.53 0.50 0.51 0.54 0.60 0.63 0.66 0.72 0.79 0.82 0.84 0.87 0.92 0.97 0.98 1.00 1.00 0.97 0.95 0.99
0.34 0.36 0.38 0.42 0.41 0.39 0.38 0.34 0.31 0.28 0.27 0.26 0.26 0.28 0.29 0.31 0.33 0.34 0.36 0.38 0.38 0.40 0.44 0.50 0.53 0.50 0.49 0.54 0.63 0.66 0.70 0.73 0.76 0.79 0.83 0.88 0.96 0.97 0.98 1.00 0.99 0.96 0.94 0.96
0.30 0.34 0.36 0.38 0.41 0.42 0.40 0.36 0.33 0.32 0.32 0.32 0.32 0.34 0.34 0.35 0.36 0.38 0.37 0.36 0.36 0.39 0.42 0.45 0.49 0.45 0.46 0.53 0.67 0.71 0.75 0.77 0.77 0.77 0.80 0.90 0.93 0.90 0.93 0.97 0.98 0.95 0.93 0.94
0.31 0.32 0.35 0.37 0.37 0.39 0.38 0.35 0.32 0.33 0.35 0.37 0.37 0.38 0.39 0.40 0.40 0.40 0.40 0.40 0.44 0.50 0.46 0.46 0.45 0.45 0.50 0.58 0.73 0.77 0.79 0.81 0.82 0.81 0.82 0.85 0.88 0.89 0.91 0.94 0.95 0.96 0.95 0.96
0.36 0.36 0.36 0.36 0.36 0.35 0.35 0.34 0.33 0.35 0.37 0.37 0.38 0.41 0.43 0.44 0.43 0.42 0.41 0.42 0.45 0.46 0.45 0.46 0.47 0.58 0.68 0.78 0.81 0.80 0.80 0.81 0.84 0.86 0.88 0.90 0.91 0.88 0.90 0.93 0.95 0.97 0.97 0.96
0.37 0.38 0.40 0.38 0.35 0.35 0.36 0.36 0.36 0.37 0.37 0.38 0.39 0.41 0.44 0.45 0.44 0.45 0.45 0.50 0.54 0.55 0.51 0.49 0.60 0.83 0.89 0.88 0.80 0.80 0.80 0.79 0.81 0.84 0.89 0.94 0.98 0.99 0.96 0.97 1.02 1.00 0.98 0.99
0.39 0.41 0.43 0.42 0.40 0.39 0.39 0.39 0.40 0.40 0.41 0.40 0.41 0.43 0.45 0.49 0.48 0.50 0.58 0.57 0.57 0.60 0.56 0.59 0.75 0.87 0.86 0.80 0.76 0.76 0.78 0.80 0.82 0.86 0.91 0.96 1.00 1.04 1.07 1.04 1.02 1.03 1.05 1.04
0.46 0.47 0.48 0.46 0.42 0.39 0.43 0.46 0.44 0.44 0.45 0.46 0.47 0.48 0.48 0.50 0.52 0.53 0.59 0.62 0.60 0.60 0.58 0.66 0.75 0.78 0.75 0.73 0.73 0.75 0.79 0.84 0.91 0.93 0.94 0.97 0.99 1.02 1.07 1.09 1.09 1.05 1.05 1.06
0.53 0.53 0.51 0.48 0.45 0.46 0.50 0.50 0.48 0.47 0.46 0.48 0.50 0.51 0.50 0.51 0.57 0.59 0.57 0.58 0.58 0.58 0.60 0.64 0.68 0.69 0.67 0.69 0.73 0.77 0.84 0.92 1.00 1.05 1.04 1.03 1.01 1.03 1.05 1.09 1.13 1.14 1.10 1.08
0.57 0.57 0.56 0.53 0.52 0.51 0.52 0.50 0.50 0.51 0.48 0.49 0.51 0.50 0.50 0.51 0.51 0.53 0.54 0.56 0.56 0.56 0.58 0.60 0.60 0.63 0.65 0.68 0.72 0.78 0.85 0.91 0.94 0.93 0.92 0.95 0.96 0.99 1.03 1.07 1.10 1.12 1.12 1.09
0.56 0.54 0.50 0.47 0.47 0.48 0.49 0.49 0.51 0.54 0.53 0.52 0.54 0.52 0.49 0.48 0.48 0.49 0.50 0.53 0.55 0.56 0.57 0.60 0.61 0.64 0.67 0.69 0.72 0.77 0.81 0.85 0.89 0.93 0.93 0.93 0.95 0.99 1.01 1.06 1.09 1.09 1.10 1.09